Grand Junction, CO

8:02 AM MST on November 17, 2019 (GMT -0700)
Walker

Weather History for KGJT - April, 2019

Change the Weather History Date:

Thursday, April 18, 2019

  Actual Average Record
Temperature  
Mean Temperature 55 °F 52 °F  
Max Temperature 71 °F 66 °F 84 °F (1946)
Min Temperature 39 °F 39 °F 22 °F (1922)
Degree Days  
Heating Degree Days 10 13  
Month to date heating degree days 220 273  
Since 1 July heating degree days 5328 5305  
Cooling Degree Days 0 0  
Month to date cooling degree days 0 0  
Year to date cooling degree days 0 0  
Growing Degree Days 4 (Base 50)    
Moisture  
Dew Point 28 °F    
Average Humidity 41    
Maximum Humidity 62    
Minimum Humidity 20    
Precipitation  
Precipitation 0.00 in 0.03 in 0.37 in (1975)
Month to date precipitation 0.06 0.57  
Year to date precipitation 3.79 2.61  
Snow  
Snow 0.00 in 0.00 in 3.60 in (1975)
Month to date snowfall T 0.8  
Since 1 July snowfall 17.4 18.9  
Snow Depth 0.00 in    
Sea Level Pressure  
Sea Level Pressure 30.13 in    
Wind  
Wind Speed 7 mph (NW)    
Max Wind Speed 15 mph    
Max Gust Speed 23 mph    
Visibility 10 miles    
Events      
T = Trace of Precipitation, MM = Missing Value Source: NWS Daily Summary

Daily Weather History Graph

Daily Weather History Graph

Search for Another Location

Airport or City:

Astronomy

Apr. 18, 2019 Rise Set
Actual Time 6:33 AM MDT 7:54 PM MDT
Civil Twilight 6:05 AM MDT 8:22 PM MDT
Nautical Twilight 5:32 AM MDT 8:55 PM MDT
Astronomical Twilight 4:57 AM MDT 9:30 PM MDT
Moon 7:15 PM MDT (4/18) 6:27 AM MDT (4/18)
Length of Visible Light 14h 16m
Length of Day
13h 21m
Waxing Gibbous, 99% of the Moon is Illuminated
Apr 18
Waxing Gibbous
Apr 19
Full
Apr 26
Last Quarter
May 4
New
May 11
First Quarter

Hourly Weather History & Observations

Time (MDT) Temp. Windchill Dew Point Humidity Pressure Visibility Wind Dir Wind Speed Gust Speed Precip Events Conditions
12:53 AM 50.0 °F - 27.0 °F 41% 30.05 in 10.0 mi WSW 8.1 mph 19.6 mph N/A   Clear
1:53 AM 48.0 °F - 28.0 °F 46% 30.08 in 10.0 mi Variable 3.5 mph - N/A   Clear
2:53 AM 48.9 °F - 27.0 °F 43% 30.09 in 10.0 mi North 6.9 mph - N/A   Clear
3:53 AM 46.9 °F - 27.0 °F 46% 30.10 in 10.0 mi North 9.2 mph - N/A   Clear
4:53 AM 43.0 °F 39.5 °F 27.0 °F 53% 30.13 in 10.0 mi WNW 5.8 mph - N/A   Clear
5:53 AM 42.1 °F - 27.0 °F 55% 30.14 in 10.0 mi Calm Calm - N/A   Clear
6:53 AM 42.1 °F 37.1 °F 27.0 °F 55% 30.17 in 10.0 mi NNE 8.1 mph - N/A   Clear
7:53 AM 43.0 °F - 30.0 °F 60% 30.22 in 10.0 mi Calm Calm - N/A   Clear
8:53 AM 48.9 °F - 30.0 °F 48% 30.24 in 10.0 mi Calm Calm - N/A   Clear
9:53 AM 53.1 °F - 30.0 °F 41% 30.24 in 10.0 mi Variable 3.5 mph - N/A   Clear
10:53 AM 57.9 °F - 28.9 °F 33% 30.22 in 10.0 mi Variable 3.5 mph - N/A   Clear
11:53 AM 61.0 °F - 28.9 °F 30% 30.22 in 10.0 mi Variable 4.6 mph - N/A   Clear
12:53 PM 63.0 °F - 28.9 °F 28% 30.17 in 10.0 mi West 8.1 mph - N/A   Clear
1:53 PM 64.9 °F - 28.0 °F 25% 30.15 in 10.0 mi SW 6.9 mph - N/A   Clear
2:53 PM 66.9 °F - 28.0 °F 23% 30.12 in 10.0 mi SW 9.2 mph - N/A   Clear
3:53 PM 69.1 °F - 28.0 °F 22% 30.08 in 10.0 mi West 9.2 mph - N/A   Clear
4:53 PM 70.0 °F - 28.0 °F 21% 30.07 in 10.0 mi West 11.5 mph - N/A   Clear
5:53 PM 70.0 °F - 27.0 °F 20% 30.07 in 10.0 mi WNW 10.4 mph - N/A   Clear
6:53 PM 68.0 °F - 27.0 °F 21% 30.08 in 10.0 mi WNW 10.4 mph - N/A   Clear
7:53 PM 61.0 °F - 28.9 °F 30% 30.10 in 10.0 mi NNW 9.2 mph - N/A   Clear
8:53 PM 57.0 °F - 28.9 °F 34% 30.11 in 10.0 mi NNE 9.2 mph - N/A   Clear
9:53 PM 61.0 °F - 27.0 °F 27% 30.11 in 10.0 mi North 11.5 mph - N/A   Clear
10:53 PM 54.0 °F - 28.9 °F 38% 30.12 in 10.0 mi WNW 5.8 mph - N/A   Clear
11:53 PM 48.9 °F - 28.0 °F 44% 30.13 in 10.0 mi ENE 4.6 mph - N/A   Clear